H1 CPF 2 NER 2025 10 4 9 277 01 glonass132 H2 1401201 9132 39620 2025 10 4 0 0 0 2025 10 7 23 45 0 900 1 1 0 0 0 1 H9 10 0 60952 0.00000 0 -9315731.441 -5320345.285 -23122693.942 10 0 60952 900.00000 0 -7558792.602 -7579610.054 -23130571.191 10 0 60952 1800.00000 0 -5990808.044 -9942265.796 -22688175.016 10 0 60952 2700.00000 0 -4645012.658 -12345348.070 -21803991.509 10 0 60952 3600.00000 0 -3542731.307 -14721675.309 -20495133.218 10 0 60952 4500.00000 0 -2692667.999 -17002489.227 -18787012.649 10 0 60952 5400.00000 0 -2090739.861 -19120178.940 -16712850.865 10 0 60952 6300.00000 0 -1720462.556 -21010974.468 -14313030.285 10 0 60952 7200.00000 0 -1553870.259 -22617496.135 -11634304.126 10 0 60952 8100.00000 0 -1552930.320 -23891052.208 -8728878.105 10 0 60952 9000.00000 0 -1671391.532 -24793587.557 -5653382.823 10 0 60952 9900.00000 0 -1856986.147 -25299200.906 -2467757.852 10 0 60952 10800.00000 0 -2053890.589 -25395166.649 765929.515 10 0 60952 11700.00000 0 -2205338.714 -25082418.455 3984706.425 10 0 60952 12600.00000 0 -2256275.080 -24375475.005 7125932.213 10 0 60952 13500.00000 0 -2155934.196 -23301812.101 10128526.301 10 0 60952 14400.00000 0 -1860235.293 -21900709.035 12934161.284 10 0 60952 15300.00000 0 -1333890.464 -20221619.317 15488397.260 10 0 60952 16200.00000 0 -552136.699 -18322135.805 17741735.193 10 0 60952 17100.00000 0 497981.271 -16265636.911 19650569.193 10 0 60952 18000.00000 0 1816831.063 -14118713.450 21178019.996 10 0 60952 18900.00000 0 3391947.991 -11948484.109 22294634.756 10 0 60952 19800.00000 0 5198335.541 -9819911.410 22978941.081 10 0 60952 20700.00000 0 7199298.082 -7793229.292 23217846.202 10 0 60952 21600.00000 0 9347771.020 -5921588.020 23006875.122 10 0 60952 22500.00000 0 11588093.283 -4249012.667 22350244.534 10 0 60952 23400.00000 0 13858148.960 -2808758.007 21260772.085 10 0 60952 24300.00000 0 16091790.038 -1622126.121 19759623.395 10 0 60952 25200.00000 0 18221440.776 -697793.855 17875901.868 10 0 60952 26100.00000 0 20180776.805 -31676.365 15646088.972 10 0 60952 27000.00000 0 21907368.988 392669.021 13113345.178 10 0 60952 27900.00000 0 23345183.289 603116.511 10326684.137 10 0 60952 28800.00000 0 24446833.600 637562.483 7340035.001 10 0 60952 29700.00000 0 25175494.266 542092.344 4211209.892 10 0 60952 30600.00000 0 25506392.842 368800.524 1000795.406 10 0 60952 31500.00000 0 25427820.571 173355.061 -2229011.287 10 0 60952 32400.00000 0 24941617.854 12409.081 -5415599.938 10 0 60952 33300.00000 0 24063113.567 -59031.828 -8497155.659 10 0 60952 34200.00000 0 22820519.712 9824.812 -11413855.086 10 0 60952 35100.00000 0 21253805.533 263168.548 -14109027.191 10 0 60952 36000.00000 0 19413097.003 736473.605 -16530256.126 10 0 60952 36900.00000 0 17356667.534 1454754.287 -18630404.398 10 0 60952 37800.00000 0 15148602.928 2431263.336 -20368536.205 10 0 60952 38700.00000 0 12856237.432 3666690.061 -21710722.533 10 0 60952 39600.00000 0 10547467.521 5148894.171 -22630711.810 10 0 60952 40500.00000 0 8288055.316 6853188.825 -23110452.473 10 0 60952 41400.00000 0 6139034.177 8743163.294 -23140456.597 10 0 60952 42300.00000 0 4154324.991 10772012.843 -22719996.687 10 0 60952 43200.00000 0 2378662.906 12884321.864 -21857130.994 10 0 60952 44100.00000 0 845921.411 15018226.907 -20568555.995 10 0 60952 45000.00000 0 -422095.919 17107869.837 -18879288.092 10 0 60952 45900.00000 0 -1416345.472 19086038.647 -16822180.057 10 0 60952 46800.00000 0 -2140686.776 20886885.050 -14437281.162 10 0 60952 47700.00000 0 -2611473.403 22448604.271 -11771053.271 10 0 60952 48600.00000 0 -2856609.840 23715963.687 -8875458.360 10 0 60952 49500.00000 0 -2914115.479 24642573.113 -5806935.779 10 0 60952 50400.00000 0 -2830258.034 25192800.396 -2625290.121 10 0 60952 51300.00000 0 -2657337.286 25343251.062 607487.386 10 0 60952 52200.00000 0 -2451214.970 25083749.501 3828439.639 10 0 60952 53100.00000 0 -2268697.427 24417780.544 6974881.242 10 0 60952 54000.00000 0 -2164883.714 23362373.540 9985627.489 10 0 60952 54900.00000 0 -2190592.921 21947434.812 12802189.727 10 0 60952 55800.00000 0 -2389980.667 20214557.929 15369913.104 10 0 60952 56700.00000 0 -2798446.105 18215363.110 17639034.384 10 0 60952 57600.00000 0 -3440917.924 16009436.703 19565639.583 10 0 60952 58500.00000 0 -4330591.373 13661958.002 21112503.608 10 0 60952 59400.00000 0 -5468168.926 11241113.121 22249796.847 10 0 60952 60300.00000 0 -6841635.878 8815403.803 22955646.503 10 0 60952 61200.00000 0 -8426579.781 6450962.676 23216543.423 10 0 60952 62100.00000 0 -10187039.977 4208985.484 23027588.147 10 0 60952 63000.00000 0 -12076851.784 2143385.326 22392572.804 10 0 60952 63900.00000 0 -14041429.561 298764.387 21323898.342 10 0 60952 64800.00000 0 -16019915.083 -1291214.769 19842329.346 10 0 60952 65700.00000 0 -17947602.753 -2604992.879 17976591.383 10 0 60952 66600.00000 0 -19758541.872 -3633766.206 15762818.427 10 0 60952 67500.00000 0 -21388208.902 -4381601.896 13243860.415 10 0 60952 68400.00000 0 -22776139.607 -4865013.009 10468463.413 10 0 60952 69300.00000 0 -23868412.343 -5112011.860 7490337.165 10 0 60952 70200.00000 0 -24619879.605 -5160681.828 4367126.916 10 0 60952 71100.00000 0 -24996054.950 -5057327.678 1159308.308 10 0 60952 72000.00000 0 -24974576.294 -4854282.007 -2070974.201 10 0 60952 72900.00000 0 -24546183.845 -4607459.906 -5261103.636 10 0 60952 73800.00000 0 -23715170.832 -4373764.645 -8349198.893 10 0 60952 74700.00000 0 -22499286.930 -4208453.721 -11275312.052 10 0 60952 75600.00000 0 -20929097.011 -4162576.561 -13982591.461 10 0 60952 76500.00000 0 -19046820.548 -4280592.522 -16418387.982 10 0 60952 77400.00000 0 -16904698.766 -4598270.582 -18535282.602 10 0 60952 78300.00000 0 -14562956.445 -5140960.532 -20292015.165 10 0 60952 79200.00000 0 -12087442.369 -5922310.162 -21654295.711 10 0 60952 80100.00000 0 -9547046.070 -6943484.338 -22595482.114 10 0 60952 81000.00000 0 -7010998.048 -8192920.883 -23097110.254 10 0 60952 81900.00000 0 -4546165.691 -9646635.682 -23149265.682 10 0 60952 82800.00000 0 -2214457.648 -11269066.156 -22750788.783 10 0 60952 83700.00000 0 -70444.942 -13014419.581 -21909308.593 10 0 60952 84600.00000 0 1840701.705 -14828471.041 -20641103.749 10 0 60952 85500.00000 0 3484872.002 -16650736.617 -18970792.465 10 0 60953 0.00000 0 4840204.109 -18416930.878 -16930857.100 10 0 60953 900.00000 0 5897751.648 -20061606.447 -14561010.894 10 0 60953 1800.00000 0 6661600.464 -21520861.850 -11907421.876 10 0 60953 2700.00000 0 7148433.498 -22735006.151 -9021805.564 10 0 60953 3600.00000 0 7386561.496 -23651064.817 -5960407.300 10 0 60953 4500.00000 0 7414462.808 -24225021.160 -2782893.975 10 0 60953 5400.00000 0 7278895.742 -24423697.842 448821.915 10 0 60953 6300.00000 0 7032665.378 -24226198.487 3671801.563 10 0 60953 7200.00000 0 6732141.473 -23624848.405 6823317.251 10 0 60953 8100.00000 0 6434634.530 -22625594.966 9842082.373 10 0 60953 9000.00000 0 6195742.798 -21247851.410 12669449.058 10 0 60953 9900.00000 0 6066783.787 -19523791.587 15250549.319 10 0 60953 10800.00000 0 6092419.660 -17497126.411 17535357.281 10 0 60953 11700.00000 0 6308577.076 -15221414.467 19479652.187 10 0 60953 12600.00000 0 6740749.035 -12757978.464 21045864.166 10 0 60953 13500.00000 0 7402749.672 -10173515.216 22203787.627 10 0 60953 14400.00000 0 8295973.574 -7537498.938 22931149.899 10 0 60953 15300.00000 0 9409189.924 -4919485.591 23214025.743 10 0 60953 16200.00000 0 10718879.394 -2386429.372 23047091.309 10 0 60953 17100.00000 0 12190099.301 -121.277 22433714.055 10 0 60953 18000.00000 0 13777840.800 2185145.764 21385877.938 10 0 60953 18900.00000 0 15428821.762 4124590.461 19923946.066 10 0 60953 19800.00000 0 17083641.258 5784554.074 18076265.555 10 0 60953 20700.00000 0 18679206.686 7143643.836 15878622.082 10 0 60953 21600.00000 0 20151333.460 8193363.246 13373554.037 10 0 60953 22500.00000 0 21437409.903 8938204.554 10609538.631 10 0 60953 23400.00000 0 22479017.080 9395200.678 7640064.644 10 0 60953 24300.00000 0 23224394.883 9592956.067 4522608.593 10 0 60953 25200.00000 0 23630651.625 9570197.421 1317533.005 10 0 60953 26100.00000 0 23665624.657 9373905.137 -1913072.795 10 0 60953 27000.00000 0 23309313.615 9057103.846 -5106587.725 10 0 60953 27900.00000 0 22554825.339 8676404.792 -8201067.210 10 0 60953 28800.00000 0 21408789.596 8289403.425 -11136441.539 10 0 60953 29700.00000 0 19891226.619 7952041.864 -13855681.150 10 0 60953 30600.00000 0 18034870.247 7716047.712 -16305906.203 10 0 60953 31500.00000 0 15883973.228 7626557.790 -18439418.598 10 0 60953 32400.00000 0 13492642.898 7720027.863 -20214636.079 10 0 60953 33300.00000 0 10922775.212 8022517.694 -21596909.823 10 0 60953 34200.00000 0 8241672.082 8548425.158 -22559209.062 10 0 60953 35100.00000 0 5519440.399 9299724.460 -23082658.818 10 0 60953 36000.00000 0 2826280.490 10265742.308 -23156919.587 10 0 60953 36900.00000 0 229776.642 11423483.313 -22780400.796 10 0 60953 37800.00000 0 -2207697.481 12738492.599 -21960303.055 10 0 60953 38700.00000 0 -4431350.330 14166220.800 -20712487.512 10 0 60953 39600.00000 0 -6396021.734 15653835.108 -19061174.069 10 0 60953 40500.00000 0 -8067824.252 17142400.826 -17038473.636 10 0 60953 41400.00000 0 -9425307.998 18569341.771 -14683763.029 10 0 60953 42300.00000 0 -10460100.408 19871075.592 -12042914.511 10 0 60953 43200.00000 0 -11176994.776 20985712.249 -9167395.110 10 0 60953 44100.00000 0 -11593484.828 21855700.866 -6113253.767 10 0 60953 45000.00000 0 -11738766.413 22430312.134 -2940016.961 10 0 60953 45900.00000 0 -11652250.161 22667850.357 290484.484 10 0 60953 46800.00000 0 -11381650.017 22537500.865 3515333.182 10 0 60953 47700.00000 0 -10980730.593 22020734.147 6671762.304 10 0 60953 48600.00000 0 -10506810.748 21112207.303 9698386.602 10 0 60953 49500.00000 0 -10018130.905 19820124.981 12536402.211 10 0 60953 50400.00000 0 -9571196.963 18166045.173 15130731.127 10 0 60953 51300.00000 0 -9218214.100 16184138.897 17431087.826 10 0 60953 52200.00000 0 -9004719.303 13919935.696 19392947.557 10 0 60953 53100.00000 0 -8967512.384 11428608.418 20978398.229 10 0 60953 54000.00000 0 -9132972.106 8772869.532 22156860.545 10 0 60953 54900.00000 0 -9515827.316 6020566.961 22905663.923 10 0 60953 55800.00000 0 -10118433.679 3242079.288 23210468.642 10 0 60953 56700.00000 0 -10930585.267 507617.815 23065527.666 10 0 60953 57600.00000 0 -11929868.059 -2115453.825 22473784.522 10 0 60953 58500.00000 0 -13082540.013 -4565172.986 21446806.437 10 0 60953 59400.00000 0 -14344900.747 -6787300.394 20004554.751 10 0 60953 60300.00000 0 -15665093.872 -8737317.455 18174997.306 10 0 60953 61200.00000 0 -16985267.251 -10382017.695 15993570.101 10 0 60953 62100.00000 0 -18244001.822 -11700628.203 13502498.076 10 0 60953 63000.00000 0 -19378908.460 -12685416.105 10749987.211 10 0 60953 63900.00000 0 -20329285.242 -13341756.088 7789302.534 10 0 60953 64800.00000 0 -21038724.729 -13687657.027 4677748.709 10 0 60953 65700.00000 0 -21457562.586 -13752768.046 1475571.772 10 0 60953 66600.00000 0 -21545065.017 -13576905.760 -1755197.642 10 0 60953 67500.00000 0 -21271262.959 -13208164.442 -4951938.011 10 0 60953 68400.00000 0 -20618355.294 -12700688.262 -8052644.999 10 0 60953 69300.00000 0 -19581620.931 -12112199.085 -10997130.779 10 0 60953 70200.00000 0 -18169799.939 -11501383.718 -13728191.451 10 0 60953 71100.00000 0 -16404925.827 -10925250.701 -16192719.842 10 0 60953 72000.00000 0 -14321614.005 -10436568.260 -18342741.823 10 0 60953 72900.00000 0 -11965834.148 -10081491.923 -20136355.673 10 0 60953 73800.00000 0 -9393215.849 -9897482.581 -21538555.816 10 0 60953 74700.00000 0 -6666956.609 -9911603.788 -22521924.336 10 0 60953 75600.00000 0 -3855418.039 -10139271.324 -23067176.244 10 0 60953 76500.00000 0 -1029509.353 -10583509.125 -23163547.173 10 0 60953 77400.00000 0 1740033.464 -11234744.405 -22809015.176 10 0 60953 78300.00000 0 4385359.879 -12071152.061 -22010351.472 10 0 60953 79200.00000 0 6844095.505 -13059535.147 -20782998.300 10 0 60953 80100.00000 0 9061703.110 -14156705.337 -19150775.429 10 0 60953 81000.00000 0 10993515.261 -15311305.860 -17145420.365 10 0 60953 81900.00000 0 12606353.532 -16466000.284 -14805970.688 10 0 60953 82800.00000 0 13879666.553 -17559934.591 -12178000.347 10 0 60953 83700.00000 0 14806139.551 -18531367.942 -9312724.950 10 0 60953 84600.00000 0 15391750.522 -19320360.104 -6265993.919 10 0 60953 85500.00000 0 15655271.802 -19871400.710 -3097190.085 10 0 60954 0.00000 0 15627239.610 -20135868.006 131940.392 10 0 60954 900.00000 0 15348436.856 -20074212.040 3358505.354 10 0 60954 1800.00000 0 14867955.490 -19657768.812 6519701.663 10 0 60954 2700.00000 0 14240922.338 -18870128.681 9554048.260 10 0 60954 3600.00000 0 13525986.582 -17708000.641 12402587.810 10 0 60954 4500.00000 0 12782676.782 -16181536.448 15010034.448 10 0 60954 5400.00000 0 12068740.340 -14314101.438 17325844.745 10 0 60954 6300.00000 0 11437578.376 -12141502.308 19305191.303 10 0 60954 7200.00000 0 10935884.262 -9710704.985 20909820.743 10 0 60954 8100.00000 0 10601584.789 -7078096.734 22108780.629 10 0 60954 9000.00000 0 10462169.611 -4307365.308 22879002.693 10 0 60954 9900.00000 0 10533477.909 -1467083.354 23205732.649 10 0 60954 10800.00000 0 10818991.806 1371902.121 23082799.946 10 0 60954 11700.00000 0 11309664.865 4139167.929 22512723.635 10 0 60954 12600.00000 0 11984291.790 6767390.117 21506653.489 10 0 60954 13500.00000 0 12810403.180 9194887.548 20084148.226 10 0 60954 14400.00000 0 13745647.624 11367930.262 18272795.414 10 0 60954 15300.00000 0 14739603.492 13242718.901 16107680.260 10 0 60954 16200.00000 0 15735945.107 14786955.020 13630712.984 10 0 60954 17100.00000 0 16674873.411 15980938.727 10889826.900 10 0 60954 18000.00000 0 17495710.170 16818149.295 7938061.656 10 0 60954 18900.00000 0 18139547.796 17305285.546 4832548.220 10 0 60954 19800.00000 0 18551844.265 17461764.867 1633414.087 10 0 60954 20700.00000 0 18684854.482 17318702.055 -1597371.039 10 0 60954 21600.00000 0 18499795.859 16917410.680 -4797187.567 10 0 60954 22500.00000 0 17968656.497 16307489.588 -7903973.846 10 0 60954 23400.00000 0 17075568.947 15544574.610 -10857426.381 10 0 60954 24300.00000 0 15817690.276 14687849.637 -13600169.313 10 0 60954 25200.00000 0 14205549.640 13797421.605 -16078870.411 10 0 60954 26100.00000 0 12262846.606 12931669.823 -18245281.652 10 0 60954 27000.00000 0 10025706.450 12144681.463 -20057183.851 10 0 60954 27900.00000 0 7541421.311 11483881.624 -21479216.532 10 0 60954 28800.00000 0 4866727.772 10987958.430 -22483576.350 10 0 60954 29700.00000 0 2065690.928 10685171.460 -23050569.860 10 0 60954 30600.00000 0 -792718.272 10592115.744 -23169009.188 10 0 60954 31500.00000 0 -3637252.498 10712994.529 -22836442.096 10 0 60954 32400.00000 0 -6397115.429 11039432.575 -22059211.162 10 0 60954 33300.00000 0 -9004673.765 11550838.878 -20852340.045 10 0 60954 34200.00000 0 -11398040.758 12215304.371 -19239248.261 10 0 60954 35100.00000 0 -13523423.332 12990997.285 -17251299.323 10 0 60954 36000.00000 0 -15337134.522 13827997.463 -14927190.523 10 0 60954 36900.00000 0 -16807186.861 14670491.952 -12312196.057 10 0 60954 37800.00000 0 -17914400.039 15459238.447 -9457278.306 10 0 60954 38700.00000 0 -18652976.720 16134191.448 -6418085.076 10 0 60954 39600.00000 0 -19030523.067 16637178.779 -3253853.215 10 0 60954 40500.00000 0 -19067514.349 16914513.831 -26241.100 10 0 60954 41400.00000 0 -18796229.727 16919431.616 3201885.879 10 0 60954 42300.00000 0 -18259203.066 16614244.386 6367691.688 10 0 60954 43200.00000 0 -17507257.261 15972124.759 9409602.405 10 0 60954 44100.00000 0 -16597207.123 14978440.493 12268510.221 10 0 60954 45000.00000 0 -15589329.644 13631584.477 14888924.409 10 0 60954 45900.00000 0 -14544709.898 11943265.144 17220046.567 10 0 60954 46800.00000 0 -13522575.390 9938245.566 19216749.440 10 0 60954 47700.00000 0 -12577731.490 7653542.719 20840440.952 10 0 60954 48600.00000 0 -11758205.564 5137120.948 22059797.856 10 0 60954 49500.00000 0 -11103197.914 2446134.467 22851356.202 10 0 60954 50400.00000 0 -10641424.280 -355207.861 23199948.806 10 0 60954 51300.00000 0 -10389917.794 -3198067.103 23098982.873 10 0 60954 52200.00000 0 -10353338.964 -6011588.390 22550553.854 10 0 60954 53100.00000 0 -10523821.043 -8725597.438 21565394.509 10 0 60954 54000.00000 0 -10881356.039 -11273269.312 20162660.925 10 0 60954 54900.00000 0 -11394704.355 -13593660.691 18369559.938 10 0 60954 55800.00000 0 -12022789.620 -15634002.565 16220825.038 10 0 60954 56700.00000 0 -12716520.347 -17351660.122 13758050.364 10 0 60954 57600.00000 0 -13420962.499 -18715680.113 11028894.780 10 0 60954 58500.00000 0 -14077772.522 -19707862.669 8086170.392 10 0 60954 59400.00000 0 -14627789.475 -20323313.953 4986831.971 10 0 60954 60300.00000 0 -15013678.032 -20570457.147 1790885.681 10 0 60954 61200.00000 0 -15182511.711 -20470501.541 -1439762.745 10 0 60954 62100.00000 0 -15088187.742 -20056391.837 -4642498.905 10 0 60954 63000.00000 0 -14693571.642 -19371281.369 -7755207.252 10 0 60954 63900.00000 0 -13972280.379 -18466592.815 -10717472.170 10 0 60954 64800.00000 0 -12910027.818 -17399747.370 -13471749.419 10 0 60954 65700.00000 0 -11505474.083 -16231657.326 -15964485.237 10 0 60954 66600.00000 0 -9770541.078 -15024087.225 -18147161.063 10 0 60954 67500.00000 0 -7730178.584 -13836994.407 -19977243.303 10 0 60954 68400.00000 0 -5421588.286 -12725960.918 -21419019.224 10 0 60954 69300.00000 0 -2892935.876 -11739825.123 -22444302.170 10 0 60954 70200.00000 0 -201602.890 -10918613.175 -23032991.778 10 0 60954 71100.00000 0 2587950.624 -10291858.012 -23173477.592 10 0 60954 72000.00000 0 5406624.864 -9877377.427 -22862877.423 10 0 60954 72900.00000 0 8183319.814 -9680563.439 -22107104.991 10 0 60954 73800.00000 0 10847666.114 -9694213.625 -20920764.675 10 0 60954 74700.00000 0 13332733.547 -9898912.152 -19326874.580 10 0 60954 75600.00000 0 15577604.001 -10263944.787 -17356422.645 10 0 60954 76500.00000 0 17529701.144 -10748709.317 -15047763.899 10 0 60954 77400.00000 0 19146779.010 -11304561.521 -12445870.378 10 0 60954 78300.00000 0 20398485.966 -11877017.938 -9601448.445 10 0 60954 79200.00000 0 21267438.490 -12408221.227 -6569941.135 10 0 60954 80100.00000 0 21749760.003 -12839562.428 -3410435.853 10 0 60954 81000.00000 0 21855062.882 -13114347.592 -184499.827 10 0 60954 81900.00000 0 21605875.660 -13180394.330 3045032.638 10 0 60954 82800.00000 0 21036541.137 -12992446.905 6215295.987 10 0 60954 83700.00000 0 20191633.784 -12514306.509 9264626.891 10 0 60954 84600.00000 0 19123965.145 -11720585.800 12133770.195 10 0 60954 85500.00000 0 17892263.266 -10598013.162 14767033.018 10 0 60955 0.00000 0 16558625.709 -9146231.755 17113364.029 10 0 60955 900.00000 0 15185853.835 -7378059.114 19127338.280 10 0 60955 1800.00000 0 13834782.935 -5319198.773 20770026.033 10 0 60955 2700.00000 0 12561717.945 -3007413.886 22009734.022 10 0 60955 3600.00000 0 11416083.462 -491199.536 22822602.989 10 0 60955 4500.00000 0 10438384.695 2171991.512 23193052.838 10 0 60955 5400.00000 0 9658563.185 4917895.919 23114068.172 10 0 60955 6300.00000 0 9094814.292 7677871.185 22587320.181 10 0 60955 7200.00000 0 8752914.021 10381511.512 21623123.697 10 0 60955 8100.00000 0 8626081.647 12959341.029 20240231.041 10 0 60955 9000.00000 0 8695382.485 15345474.415 18465466.991 10 0 60955 9900.00000 0 8930653.026 17480136.348 16333211.839 10 0 60955 10800.00000 0 9291909.193 19311937.029 13884742.006 10 0 60955 11700.00000 0 9731178.672 20799810.881 11167440.119 10 0 60955 12600.00000 0 10194680.750 21914539.146 8233888.797 10 0 60955 13500.00000 0 10625262.664 22639793.947 5140864.512 10 0 60955 14400.00000 0 10964990.655 22972660.861 1948249.838 10 0 60955 15300.00000 0 11157787.206 22923618.371 -1282115.839 10 0 60955 16200.00000 0 11152003.697 22515974.870 -4487625.750 10 0 60955 17100.00000 0 10902820.022 21784786.383 -7606112.918 10 0 60955 18000.00000 0 10374369.496 20775299.735 -10577051.995 10 0 60955 18900.00000 0 9541498.501 19540985.788 -13342732.657 10 0 60955 19800.00000 0 8391085.277 18141244.615 -15849381.748 10 0 60955 20700.00000 0 6922860.418 16638878.396 -18048212.143 10 0 60955 21600.00000 0 5149692.336 15097437.760 -19896377.644 10 0 60955 22500.00000 0 3097323.236 13578552.808 -21357814.902 10 0 60955 23400.00000 0 803564.172 12139360.933 -22403955.423 10 0 60955 24300.00000 0 -1683019.518 10830139.676 -23014293.218 10 0 60955 25200.00000 0 -4304879.628 9692244.414 -23176796.319 10 0 60955 26100.00000 0 -6997641.113 8756438.036 -22888153.372 10 0 60955 27000.00000 0 -9692554.120 8041683.320 -22153849.689 10 0 60955 27900.00000 0 -12319140.573 7554449.318 -20988070.404 10 0 60955 28800.00000 0 -14807925.258 7288561.298 -19413431.823 10 0 60955 29700.00000 0 -17093137.393 7225600.760 -17460545.487 10 0 60955 30600.00000 0 -19115269.507 7335838.545 -15167422.933 10 0 60955 31500.00000 0 -20823386.084 7579661.232 -12578732.476 10 0 60955 32400.00000 0 -22177084.813 7909429.764 -9744922.622 10 0 60955 33300.00000 0 -23148027.854 8271690.566 -6721229.574 10 0 60955 34200.00000 0 -23720978.726 8609644.144 -3566589.055 10 0 60955 35100.00000 0 -23894301.578 8865765.004 -342474.757 10 0 60955 36000.00000 0 -23679902.601 8984460.207 2888312.624 10 0 60955 36900.00000 0 -23102617.246 8914652.326 6062880.671 10 0 60955 37800.00000 0 -22199070.672 8612175.996 9119479.417 10 0 60955 38700.00000 0 -21016061.194 8041885.564 11998709.196 10 0 60955 39600.00000 0 -19608536.720 7179384.019 14644677.830 10 0 60955 40500.00000 0 -18037251.029 6012299.928 17006084.224 10 0 60955 41400.00000 0 -16366199.816 4541058.567 19037207.525 10 0 60955 42300.00000 0 -14659945.081 2779115.107 20698783.163 10 0 60955 43200.00000 0 -12980940.341 752640.458 21958749.920 10 0 60955 44100.00000 0 -11386968.350 -1500326.778 22792854.935 10 0 60955 45000.00000 0 -9928797.532 -3931226.605 23185106.506 10 0 60955 45900.00000 0 -8648153.591 -6482766.213 23128067.548 10 0 60955 46800.00000 0 -7576089.105 -9091076.896 22622985.515 10 0 60955 47700.00000 0 -6731817.185 -11688150.497 21679757.458 10 0 60955 48600.00000 0 -6122055.810 -14204455.450 20316731.721 10 0 60955 49500.00000 0 -5740908.443 -16571625.346 18560350.471 10 0 60955 50400.00000 0 -5570284.423 -18725110.041 16444639.906 10 0 60955 51300.00000 0 -5580840.552 -20606680.921 14010557.512 10 0 60955 52200.00000 0 -5733403.868 -22166687.786 11305208.160 10 0 60955 53100.00000 0 -5980815.846 -23365974.742 8380943.180 10 0 60955 54000.00000 0 -6270120.816 -24177376.286 5294358.692 10 0 60955 54900.00000 0 -6545007.025 -24586731.770 2105211.395 10 0 60955 55800.00000 0 -6748398.086 -24593376.005 -1124728.171 10 0 60955 56700.00000 0 -6825086.011 -24210085.275 -4332863.580 10 0 60955 57600.00000 0 -6724294.950 -23462480.449 -7456979.315 10 0 60955 58500.00000 0 -6402067.226 -22387911.443 -10436443.366 10 0 60955 59400.00000 0 -5823370.387 -21033868.852 -13213382.501 10 0 60955 60300.00000 0 -4963835.200 -19455988.463 -15733807.392 10 0 60955 61200.00000 0 -3811049.759 -17715731.465 -17948665.512 10 0 60955 62100.00000 0 -2365353.188 -15877836.974 -19814801.032 10 0 60955 63000.00000 0 -640093.208 -14007653.165 -21295802.664 10 0 60955 63900.00000 0 1338665.690 -12168458.667 -22362722.361 10 0 60955 64800.00000 0 3532973.760 -10418886.431 -22994650.308 10 0 60955 65700.00000 0 5894334.739 -8810558.209 -23179134.321 10 0 60955 66600.00000 0 8365497.821 -7386029.079 -22912434.666 10 0 60955 67500.00000 0 10882629.640 -6177128.588 -22199608.534 10 0 60955 68400.00000 0 13377776.678 -5203768.434 -21054421.649 10 0 60955 69300.00000 0 15781515.851 -4473267.025 -19499087.910 10 0 60955 70200.00000 0 18025682.666 -3980219.348 -17563841.424 10 0 60955 71100.00000 0 20046062.658 -3706917.422 -15286348.749 10 0 60955 72000.00000 0 21784932.861 -3624303.086 -12710972.539 10 0 60955 72900.00000 0 23193346.192 -3693412.050 -9887901.024 10 0 60955 73800.00000 0 24233062.291 -3867246.946 -6872160.712 10 0 60955 74700.00000 0 24878043.237 -4092998.668 -3722532.393 10 0 60955 75600.00000 0 25115451.179 -4314520.182 -500392.665 10 0 60955 76500.00000 0 24946106.189 -4474946.232 2731495.115 10 0 60955 77400.00000 0 24384385.825 -4519346.121 5910215.423 10 0 60955 78300.00000 0 23457571.789 -4397295.574 8973935.293 10 0 60955 79200.00000 0 22204672.695 -4065257.478 11863113.954 10 0 60955 80100.00000 0 20674774.152 -3488669.832 14521662.972 10 0 60955 81000.00000 0 18924987.183 -2643652.178 16898033.937 10 0 60955 81900.00000 0 17018082.577 -1518258.370 18946212.687 10 0 60955 82800.00000 0 15019911.486 -113223.120 20626601.307 10 0 60955 83700.00000 0 12996720.814 1557828.696 21906771.877 10 0 60955 84600.00000 0 11012475.559 3468718.369 22762078.724 10 0 60955 85500.00000 0 9126299.288 5581580.936 23176118.895 99